Flag for Canada Weather past 2 weeks in Saguenay, Quebec, Canada

Now
62 °F

Cool.


Feels Like: 62 °F
Forecast: 63 / 71 °F
Wind: 3 mph from East

Location: Jonquiere Airport

Current Time: Aug 30, 2014 at 8:59:43 PM

Latest Report: Aug 30, 2014 at 8:00 PM


Visibility: N/A

Pressure: 29.92 "Hg

Humidity: 95%

Dew point: 60 °F

Location of SaguenayLocation

Historic Weather in Saguenay — Graph

°F

Saguenay temperature yesterday

Maximum temperature yesterday: 71 °F (at 5:00 PM)
Minimum temperature yesterday: 46 °F (at 6:00 AM)
Average temperature yesterday: 57 °F

Past Weeks' High & Low Weather Summary

 TemperatureHumidityPressure
High86 °F (Aug 25, 3:00 PM)100% (Aug 25, 6:00 AM)30.25 "Hg (Aug 25, 6:00 AM)
Low46 °F (Aug 29, 6:00 AM)32% (Aug 25, 3:00 PM)29.76 "Hg (Aug 26, 10:00 PM)
Average64 °F77%30.00 "Hg
* Reported Aug 15 7:00 PM — Aug 30 7:00 PM, Saguenay, Weather by CustomWeather, © 2014

Note: Actual official high and low records may vary slightly from our data, if they occured in-between our weather recording intervals... More about our weather records

Advertising

Saguenay weather history for previous 24 hours

 ConditionsComfort  
Time TempWeatherWind HumidityBarometerVisibility
7:00 PM
Aug 30
60 °FCool.3 mph100%29.93 "HgN/A
6:00 PM62 °FCool.3 mph95%29.94 "HgN/A
5:00 PM62 °FCool.5 mph95%29.94 "HgN/A
4:00 PM63 °FMild.2 mph92%29.96 "HgN/A
3:00 PM62 °FCool.8 mph92%29.97 "HgN/A
2:00 PM61 °FCool.3 mph96%29.98 "HgN/A
1:00 PM59 °FCool.5 mph93%29.99 "HgN/A
12:00 PM61 °FCool.3 mph86%29.99 "HgN/A
11:00 AM60 °FCool.1 mph85%30.01 "HgN/A
10:00 AM58 °FCool.3 mph90%30.02 "HgN/A
9:00 AM56 °FCool.3 mph91%30.04 "HgN/A
8:00 AM56 °FCool.1 mph86%30.07 "HgN/A
7:00 AM54 °FCool.7 mph88%30.09 "HgN/A
6:00 AM52 °FCool.2 mph90%30.09 "HgN/A
5:00 AM54 °FCool.7 mph86%30.11 "HgN/A
4:00 AM54 °FCool.5 mph86%30.12 "HgN/A
3:00 AM53 °FCool.6 mph92%30.13 "HgN/A
2:00 AM52 °FCool.3 mph88%30.14 "HgN/A
1:00 AM54 °FCool.8 mph86%30.14 "HgN/A
12:00 AM55 °FCool.7 mph86%30.15 "HgN/A
11:00 PM
Aug 29
53 °FCool.6 mph91%30.16 "HgN/A
10:00 PM57 °FCool.5 mph82%30.16 "HgN/A
9:00 PM58 °FCool.8 mph72%30.16 "HgN/A
8:00 PM61 °FCool.7 mph70%30.14 "HgN/A
Weather by CustomWeather, © 2014

See weather overviewHow to use our weather pages